YACHTS Weather Reports


time (UTC)temp
C
wind
direction
speed
KPH
gust
KPH
rain 1hr
cm
rain 24hr
cm
rain mn
cm
humidity
%
barometer
mb
20260504170129 11 266 1.6 11.3 0.00 0.00 0.00 91 1014.5
20260504160407 11 231 1.6 24.1 0.00 0.00 0.00 91 1014.2
20260504150643 11 226 0.0 16.1 0.00 0.00 0.00 92 1014.1
20260504150130 11 183 1.6 16.1 0.00 0.00 0.00 92 1014.1
20260504140920 10 200 4.8 16.1 0.00 0.00 0.00 91 1013.7
20260504140408 10 281 0.0 8.0 0.00 0.00 0.00 91 1013.6
20260504130644 10 0 0.0 12.9 0.00 0.00 0.00 91 1013.1
20260504130131 10 0 0.0 12.9 0.00 0.00 0.00 91 1013.0
20260504110646 10 207 4.8 16.1 0.00 0.00 0.00 92 1012.9
20260504100409 10 161 0.0 11.3 0.00 0.00 0.00 92 1012.9
20260504090133 10 0 0.0 12.9 0.00 0.00 0.00 92 1012.7
20260504081949 10 298 1.6 11.3 0.00 0.00 0.00 92 1012.7
20260504081436 10 254 3.2 9.7 0.00 0.00 0.00 92 1012.7
20260504080923 10 225 0.0 12.9 0.00 0.00 0.00 93 1012.7
20260504080410 10 145 3.2 12.9 0.00 0.00 0.00 92 1012.6
20260504070134 11 196 0.0 16.1 0.00 0.00 0.00 92 1012.3
20260504050648 10 179 0.0 19.3 0.00 0.00 0.00 93 1011.9
20260504050135 10 271 0.0 19.3 0.00 0.00 0.00 93 1011.8
20260504045621 10 256 0.0 19.3 0.00 0.00 0.00 93 1011.9
20260504045109 10 235 4.8 17.7 0.00 0.00 0.00 93 1011.9
20260504044556 10 231 3.2 16.1 0.00 0.00 0.00 93 1011.8
20260504044042 10 256 3.2 27.4 0.00 0.00 0.00 93 1011.8
20260504043529 10 264 9.7 27.4 0.00 0.00 0.00 93 1011.7
20260504043016 10 250 1.6 27.4 0.00 0.00 0.00 93 1011.7
20260504042503 11 226 1.6 24.1 0.00 0.00 0.00 93 1011.7
20260504041951 11 261 6.4 24.1 0.00 0.00 0.00 92 1011.5
20260504041437 11 198 0.0 20.9 0.00 0.00 0.00 92 1011.5
20260504040924 11 266 1.6 20.9 0.00 0.00 0.00 92 1011.4
20260504040411 11 242 8.0 20.9 0.00 0.00 0.00 92 1011.3
20260504035858 11 263 8.0 17.7 0.00 0.00 0.00 92 1011.3
20260504035345 11 0 8.0 27.4 0.00 0.00 0.00 92 1011.1
20260504034833 10 246 8.0 27.4 0.00 0.00 0.00 92 1011.0
20260504034319 10 0 1.6 27.4 0.00 0.00 0.00 92 1011.1
20260504033806 10 0 3.2 22.5 0.00 0.00 0.00 92 1010.9
20260504033253 10 239 6.4 22.5 0.00 0.00 0.00 92 1010.8
20260504032740 10 214 6.4 20.9 0.00 0.00 0.00 92 1010.7
20260504032228 10 288 3.2 20.9 0.00 0.00 0.00 92 1010.5
20260504031715 10 273 6.4 20.9 0.00 0.00 0.00 92 1010.6
20260504031201 10 257 3.2 24.1 0.00 0.00 0.00 92 1010.6
20260504030649 10 270 8.0 24.1 0.00 0.00 0.00 92 1010.5
20260504030135 10 260 11.3 24.1 0.00 0.00 0.00 92 1010.6
20260504025626 10 278 1.6 22.5 0.00 0.00 0.00 92 1010.5
20260504025109 10 284 9.7 22.5 0.00 0.00 0.00 92 1010.4
20260504024557 10 302 4.8 20.9 0.00 0.00 0.00 92 1010.5
20260504024043 10 302 8.0 20.9 0.00 0.00 0.00 92 1010.4
20260504023531 10 263 3.2 20.9 0.00 0.00 0.00 92 1010.4
20260504023017 10 245 11.3 17.7 0.00 0.00 0.00 92 1010.4
20260504022504 10 256 4.8 20.9 0.00 0.00 0.00 92 1010.3
20260504021951 10 270 8.0 20.9 0.00 0.00 0.00 91 1010.1
20260504021438 10 186 6.4 20.9 0.00 0.00 0.00 91 1010.1
20260504020412 10 267 11.3 17.7 0.00 0.00 0.00 91 1010.1
20260504015859 11 242 9.7 22.5 0.00 0.00 0.00 91 1010.0
20260504015346 11 270 8.0 22.5 0.00 0.00 0.00 91 1009.9
20260504014833 11 280 11.3 22.5 0.00 0.00 0.00 91 1009.8
20260504014320 11 275 11.3 17.7 0.00 0.00 0.00 91 1009.8
20260504013807 11 249 1.6 6.4 0.00 0.00 0.00 91 1009.7
20260504013254 11 211 4.8 20.9 0.00 0.00 0.00 91 1009.8
20260504012741 11 273 6.4 20.9 0.00 0.00 0.00 91 1009.7
20260504012228 10 252 6.4 20.9 0.00 0.00 0.00 91 1009.7
20260504011715 10 252 0.0 12.9 0.00 0.00 0.00 91 1009.6
20260504010136 11 267 11.3 25.7 0.00 0.00 0.00 90 1009.9
20260504005110 11 277 4.8 12.9 0.00 0.00 0.00 90 1010.0
20260504004558 11 263 4.8 17.7 0.00 0.00 0.00 90 1009.9
20260504004044 11 319 1.6 17.7 0.00 0.00 0.00 90 1009.9
20260504003531 11 288 4.8 17.7 0.00 0.00 0.00 90 1010.0
20260504003018 11 246 9.7 14.5 0.00 0.00 0.00 89 1009.9
20260504001952 11 291 3.2 17.7 0.00 0.00 0.00 89 1009.7
20260504001439 11 305 4.8 17.7 0.00 0.00 0.00 89 1009.7
20260504000413 11 330 3.2 17.7 0.00 0.00 0.00 89 1009.6
20260503235900 11 228 6.4 17.7 0.00 0.00 0.00 88 1009.6
20260503235347 11 324 6.4 17.7 0.00 0.00 0.00 88 1009.6
20260503234834 11 282 4.8 16.1 0.00 0.00 0.00 88 1009.6
20260503234321 11 247 8.0 16.1 0.00 0.00 0.00 88 1009.6
20260503233808 11 242 8.0 11.3 0.00 0.00 0.00 88 1009.6
20260503233255 11 291 8.0 17.7 0.00 0.00 0.00 88 1009.6
20260503232742 11 274 8.0 17.7 0.00 0.00 0.00 88 1009.5
20260503232229 11 277 9.7 17.7 0.00 0.00 0.00 88 1009.4
20260503231716 12 253 9.7 16.1 0.00 0.00 0.00 87 1009.4
20260503231203 12 264 8.0 14.5 0.00 0.00 0.00 87 1009.5
20260503230650 11 235 9.7 19.3 0.00 0.00 0.00 88 1009.6
20260503225624 12 273 8.0 19.3 0.00 0.00 0.00 87 1009.7
20260503225111 12 242 9.7 17.7 0.00 0.00 0.00 87 1009.8
20260503224558 12 292 9.7 17.7 0.00 0.00 0.00 87 1009.8
20260503224045 12 327 8.0 17.7 0.00 0.00 0.00 87 1009.7
20260503223534 12 266 8.0 17.7 0.00 0.00 0.00 87 1009.9
20260503223019 12 249 8.0 16.1 0.00 0.00 0.00 87 1010.0
20260503221953 12 267 9.7 16.1 0.00 0.00 0.00 86 1010.0
20260503221440 12 267 8.0 16.1 0.00 0.00 0.00 86 1010.1
20260503220927 12 281 8.0 16.1 0.00 0.00 0.00 86 1010.1
20260503220414 12 266 9.7 12.9 0.00 0.00 0.00 86 1010.2
20260503215901 12 305 8.0 12.9 0.00 0.00 0.00 86 1010.2
20260503215348 12 270 8.0 14.5 0.00 0.00 0.00 86 1010.2
20260503214835 12 292 6.4 14.5 0.00 0.00 0.00 87 1010.2
20260503213809 13 299 8.0 11.3 0.00 0.00 0.00 86 1010.2
20260503213256 12 299 4.8 9.7 0.00 0.00 0.00 87 1010.2
20260503212743 12 301 4.8 11.3 0.00 0.00 0.00 87 1010.3
20260503212230 12 317 9.7 11.3 0.00 0.00 0.00 87 1010.3
20260503211717 12 310 8.0 11.3 0.00 0.00 0.00 87 1010.4
20260503211204 12 315 8.0 14.5 0.00 0.00 0.00 87 1010.4
20260503210651 12 298 8.0 14.5 0.00 0.00 0.00 87 1010.4
20260503210138 12 292 9.7 14.5 0.00 0.00 0.00 87 1010.4
20260503205112 12 289 9.7 11.3 0.00 0.00 0.00 87 1010.4
20260503204559 13 310 8.0 9.7 0.00 0.00 0.00 87 1010.3
20260503204047 13 329 6.4 9.7 0.00 0.00 0.00 87 1010.4
20260503203533 13 296 8.0 9.7 0.00 0.00 0.00 87 1010.4
20260503203020 13 0 0.0 0.0 0.00 0.00 0.00 88 1010.4
20260503202507 13 0 0.0 0.0 0.00 0.00 0.00 88 1010.4
20260503201954 13 0 0.0 4.8 0.00 0.00 0.00 89 1010.4
20260503201441 13 0 0.0 4.8 0.00 0.00 0.00 89 1010.4
20260503200928 12 0 0.0 4.8 0.00 0.00 0.00 90 1010.4
20260503200415 12 295 3.2 4.8 0.00 0.00 0.00 90 1010.4
20260503195902 12 268 3.2 9.7 0.00 0.00 0.00 90 1010.5
20260503195349 12 319 8.0 9.7 0.00 0.00 0.00 90 1010.6
20260503194836 11 305 4.8 9.7 0.00 0.00 0.00 90 1010.6
20260503194324 11 312 8.0 9.7 0.00 0.00 0.00 90 1010.6
20260503193810 11 0 0.0 9.7 0.00 0.00 0.00 90 1010.6
20260503193257 11 312 6.4 9.7 0.00 0.00 0.00 90 1010.6
20260503192231 12 305 8.0 12.9 0.00 0.00 0.00 90 1010.8
20260503191718 12 306 9.7 12.9 0.00 0.00 0.00 90 1010.9
20260503191205 12 306 8.0 12.9 0.00 0.00 0.00 90 1010.9
20260503190652 12 315 6.4 12.9 0.00 0.00 0.00 89 1011.0
20260503190139 13 303 6.4 8.0 0.00 0.00 0.00 90 1010.9
20260503185626 13 313 3.2 8.0 0.00 0.00 0.00 91 1011.0
20260503184600 12 0 0.0 9.7 0.00 0.00 0.00 91 1010.9
20260503184047 12 308 3.2 9.7 0.00 0.00 0.00 91 1011.0
20260503183534 12 285 3.2 9.7 0.00 0.00 0.00 91 1011.0
20260503183021 11 298 6.4 12.9 0.00 0.00 0.00 91 1011.0
20260503181442 12 298 6.4 11.3 0.00 0.00 0.00 92 1011.0
20260503180929 12 301 6.4 9.7 0.00 0.00 0.00 92 1010.9
20260503180416 12 303 6.4 9.7 0.00 0.00 0.00 92 1010.9
20260503175903 11 281 3.2 11.3 0.00 0.00 0.00 92 1010.9
20260503175350 11 306 3.2 11.3 0.00 0.00 0.00 92 1011.0
20260503174837 11 280 4.8 11.3 0.00 0.00 0.00 92 1010.9
20260503174324 11 287 4.8 11.3 0.00 0.00 0.00 92 1011.0
20260503173811 11 261 6.4 11.3 0.00 0.00 0.00 92 1011.0
20260503173258 11 306 1.6 11.3 0.00 0.00 0.00 92 1011.1
20260503172232 11 285 3.2 9.7 0.00 0.00 0.00 93 1011.0
20260503171719 11 284 4.8 9.7 0.00 0.00 0.00 92 1011.0
20260503170653 11 302 4.8 11.3 0.00 0.00 0.00 93 1011.0